Location: Beneden-Haastrecht
(52.0012°N, 4.7557°E)
Time: 03:37:59
(UTC+00:00)

Resurs 01 Rocket - Pass Details

Date: 24 October 2020
Orbit: 634 x 644 km, 98.0° (Epoch: 24 November)

Event Time Altitude Azimuth Distance (km) Brightness Sun altitude
Exits shadow 18:51:15 13° 19° (NNE) 1,826 3.9 -22.7°
Drops below altitude 10° 18:52:00 10° 12° (NNE) 2,036 4.2 -22.8°
Sets 18:54:39 0° 356° (N) 2,948 5.2 -23.2°
